Tracking 22454 objects as of 5-Mar-2021
HD Live streaming from Space Station
objects crossing your sky now

CZ-3C DEB

Track CZ-3C DEB now!


NORAD ID: 42480
Int'l Code: 2012-008AQ
Perigee: 1,010.7 km
Apogee: 35,672.9 km
Inclination: 21.1 °
Period: 644.4 minutes
Semi major axis: 24712 km
RCS: Unknown
Launch date: February 24, 2012
Source: People's Republic of China (PRC)
Launch site: Xichang Space Center, China (XSC)

Note: This is SATELLITE DEBRIS
aabbcc
Your satellite tracking list
Your tracking list is empty




NASA's NSSDC Master Catalog

Two Line Element Set (TLE):
1 42480U 12008AQ  19108.77087104 -.00000030  00000-0  00000+0 0  9995
2 42480  21.1226 284.3568 7013002 224.2296  51.5883  2.23470139 35672
Source of the keplerian elements: AFSPC